Location: Unspecified
(44.0704°N, 88.6889°W)
Time: 12:50:02
(UTC+02:00)

CZ-3 Stage 3 - Pass Details

Date: 30 March 2019
Orbit: 421 x 34769 km, 30.5° (Epoch: 15 October)

Event Time Altitude Azimuth Distance (km) Brightness Sun altitude
Exits shadow 10:42:55 22° 218° (SW) 4,444 5.8 -20.9°
Maximum altitude 10:56:52 57° 148° (SSE) 6,617 7.2 -18.7°
Drops below altitude 10° 19:39:01 10° 162° (SSE) 18,087 10.2 48.9°
Sets 19:54:36 0° 157° (SSE) 15,600 9.6 48.0°
